Regional Weather Roundup
Issued by NWS

Home | Current Version | Previous Version | Text Only | Print | Product List | Glossary On
Versions: 1 2 3 4 5 6 7 8 9 10 11 12 13 14 15 16 17 18 19 20 21 22 23 24 25 26 27 28 29 30 31 32 33 34 35 36 37 38 39 40 41 42 43 44 45 46 47 48 49 50
000
ASUS43 KDMX 200307
RWRIA

WEATHER ROUNDUP FOR IOWA
NATIONAL WEATHER SERVICE DES MOINES IA
1000 PM CDT FRI SEP 19 2014

NOTE: "FAIR" INDICATES FEW OR NO CLOUDS BELOW 12,000 FEET WITH NO
SIGNIFICANT WEATHER AND/OR OBSTRUCTIONS TO VISIBILITY.

* - THESE STATIONS ARE NOT NWS STATIONS...THUS NOT UNDER NWS
QUALITY CONTROL.  THEY ALSO DO NOT REPORT WEATHER SUCH
AS PRECIPITATION OR FOG.

IAZ001>003-012>014-020>022-031>034-043>046-200400-
   NORTHWEST IOWA

CITY           SKY/WX    TMP DP  RH WIND       PRES   REMARKS
CARROLL *      MOCLDY    70  66  88 S14G21    29.80F FOG
CHEROKEE *     PTCLDY    73  70  88 S18       29.72F
DENISON *      CLEAR     72  70  94 S17G26    29.77F
LE MARS *      MOCLDY    77  68  73 S12       29.72S
ORANGE CITY *  MOCLDY    75  64  69 S17       29.69F
SHELDON *      CLOUDY    75  66  73 E10G20    29.69F
SIOUX CITY     MOCLDY    76  67  73 S9        29.72F
SPENCER        MOCLDY    74  68  81 S10       29.72F
STORM LAKE *   CLEAR     72  72 100 S14G23    29.76F
$$

IAZ055>058-069>071-079>083-090>094-200400-
   SOUTHWEST IOWA

CITY           SKY/WX    TMP DP  RH WIND       PRES   REMARKS
ATLANTIC *     CLEAR     70  68  94 S15       29.83F
AUDUBON *      CLEAR     70  63  78 S15G23    29.83F HAZE
CLARINDA *     CLEAR     70  68  94 S9        29.90S
COUNCIL BLFS * CLEAR     73  72  94 S18       29.82S
CRESTON *      CLEAR     68  66  94 S15G22    29.89S FOG
HARLAN  *      CLEAR     72  70  94 S16G23    29.85F
LAMONI         CLEAR     68  65  90 S13       29.91F
RED OAK *      CLEAR     72  68  88 S14G21    29.86S
SHENANDOAH *   CLEAR     73  68  83 S13G20    29.87S
$$

IAZ047>049-059>061-072>074-084-200400-
   CENTRAL IOWA

CITY           SKY/WX    TMP DP  RH WIND       PRES   REMARKS
AMES           PTCLDY    70  66  87 S14       29.84F
ANKENY *       PTCLDY    70  66  88 S14G21    29.85S
CHARITON *     CLEAR     68  64  88 S14       29.90S
DES MOINES     PTCLDY    71  66  84 S15       29.86R
GRINNELL*      CLEAR     66  61  82 S13G18    29.88F
KNOXVILLE *    CLEAR     68  63  83 S10G16    29.87F
MARSHALLTOWN   CLEAR     68  62  81 S14       29.85S
PELLA *        CLEAR     68  63  83 S10       29.89F
PERRY *        MOCLDY    68  66  94 S8        29.84S FOG
$$

IAZ004>006-015-016-023>025-035-036-200400-
   NORTH CENTRAL IOWA

CITY           SKY/WX    TMP DP  RH WIND       PRES   REMARKS
ALGONA *       CLEAR     72  68  88 S18G28    29.75F
CLARION *        N/A     70  66  88 S18G24    29.79F
ESTHERVILLE    PTCLDY    73  67  81 S13       29.72F
FORT DODGE *   PTCLDY    68  64  88 S17G24    29.80F
MASON CITY     PTCLDY    70  66  87 S14       29.79F
FOREST CITY *  PTCLDY    70  66  88 S16G24    29.77F
IOWA FALLS *     N/A     68  64  88 S15G23    29.83F
$$

IAZ007>011-017>019-026>030-037>042-050>054-066-200400-
   NORTHEAST IOWA

CITY           SKY/WX    TMP DP  RH WIND       PRES   REMARKS
CEDAR RAPIDS   CLEAR     67  59  75 S15G23    29.88R
CHARLES CITY * PTCLDY    68  63  83 S13G18    29.82F
CLINTON *      CLEAR     64  54  68 S13       29.94F
DECORAH *      CLEAR     66  59  77 S12G21    29.81F
DUBUQUE        CLEAR     65  55  70 S17       29.89R
MONTICELLO *   CLEAR     66  57  72 S8        29.89R
OELWEIN *      CLEAR     66  59  77 S16G23    29.86S
WATERLOO       CLEAR     68  61  78 S18       29.83S
$$

IAZ064-065-067-068-078-200400-
   EAST CENTRAL IOWA

CITY           SKY/WX    TMP DP  RH WIND       PRES   REMARKS
DAVENPORT      CLEAR     67  54  63 S15       29.92F
IOWA CITY      CLEAR     67  58  72 S12       29.91S
MT. PLEASANT * CLEAR     66  55  68 S8        29.94S
MUSCATINE *    CLEAR     66  57  72 S10       29.92F
QUAD CITIES    CLEAR     68  55  63 S13       29.92F
$$

IAZ062-063-075>077-085>089-095>099-200400-
   SOUTHEAST IOWA

CITY           SKY/WX    TMP DP  RH WIND       PRES   REMARKS
BURLINGTON     CLEAR     66  58  75 S13       29.95S
FAIRFIELD *    CLEAR     66  59  77 S7        29.93R
FORT MADISON * CLEAR     66  57  72 S9        29.96S
KEOKUK *       CLEAR     68  59  73 S8        29.95S
OSKALOOSA *      N/A     66  63  88 S12       29.91S
CENTERVILLE *  CLEAR     66  64  94 S8        29.95R
OTTUMWA        CLEAR     68  61  78 S12       29.91R
WASHINGTON *   CLEAR     66  59  77 S12       29.92S
$$

ABBREVIATIONS USED IN REMARKS
   TC - TEMPERATURES IN CELSIUS
  WCI - WIND CHILL INDEX
   HX - HEAT INDEX
  VSB - VISIBILITY
$$



USA.gov is the U.S. government's official web portal to all federal, state and local government web resources and services.